Hourly Weather Roundup
Issued by NWS Central Illinois

Home | Current Version | Previous Version | Graphics & Text | Print | Product List | Glossary On
Versions: 1 2 3 4 5 6 7 8 9 10 11 12 13 14 15 16 17 18 19 20 21 22 23 24 25 26 27 28 29 30 31 32 33 34 35 36 37 38 39 40 41 42 43 44 45 46 47 48 49 50
000
NZUS43 KILX 230310
HWRILX

AREA WEATHER ROUNDUP
NATIONAL WEATHER SERVICE, LINCOLN IL
1000 PM CDT FRI AUG 22 2014


CITY           SKY/WX    TMP DP  RH WIND       PRES   REMARKS
BLOOMINGTON    CLEAR     74  71  90 SE6       30.01R
CHAMPAIGN      CLEAR     75  73  93 E6        30.01R
DECATUR        MOCLDY    79  76  90 SE3       29.99S HX  83
FLORA          MOCLDY    79  77  94 E5        29.99R FOG     HX  84
GALESBURG      PTCLDY    77  75  94 CALM      29.98R
JACKSONVILLE   PTCLDY    80  78  94 E3        29.98R HX  85
LACON          PTCLDY    77  74  89 E6        29.97S
LAWRENCEVILLE  CLOUDY    79  77  94 E5        29.99S HX  83
LITCHFIELD     PTCLDY    78  76  94 E6        29.98R HX  81
$$


CITY           SKY/WX    TMP DP  RH WIND       PRES   REMARKS
LINCOLN        PTCLDY    78  76  91 CALM      29.95R HX  82
MACOMB         PTCLDY    76  75  99 CALM      29.99R FOG
MATTOON        PTCLDY    78  76  93 CALM      29.99R HX  81
MT CARMEL AP   MOCLDY    81  79  94 E3        29.99R THUNDER HX  89
OLNEY-NOBLE AP CLEAR     77  77 100 CALM      30.00R FOG
PARIS          PTCLDY    74  74  99 CALM      30.01R FOG
PEORIA         PTCLDY    79  74  84 E3        29.98R HX  82
PONTIAC        PTCLDY    75  75 100 SE3       29.99S
RANTOUL        CLEAR     75  71  87 CALM      30.01S
ROBINSON       MOCLDY    80  78  95 CALM      30.00R FOG     HX  85
SPRINGFIELD    PTCLDY    79  77  94 CALM      29.97R HX  83
TAYLORVILLE    CLEAR     77  75  94 SE3       29.98R
$$

...REGIONAL REPORTS...


CITY           SKY/WX    TMP DP  RH WIND       PRES   REMARKS
CHICAGO O`HARE MOCLDY    79  70  74 CALM      29.98R HX  82
KANKAKEE       CLEAR     72  71  98 CALM      30.00S
MOLINE         CLEAR     74  72  93 SE3       29.96S
MOUNT VERNON   PTCLDY    79  73  83 CALM      29.98S HX  82
PITTSFIELD     PTCLDY    80  76  89 NE3       29.97R HX  85
QUINCY         CLEAR     79  76  90 E7        29.96R HX  83
ROCKFORD       PTCLDY    76  73  91 CALM      29.99R
$$


CITY           SKY/WX    TMP DP  RH WIND       PRES   REMARKS
BURLINGTON     MOCLDY    78  77  96 CALM      29.96R HX  81
CEDAR RAPIDS   MOCLDY    75  75 100 CALM      29.96S
DES MOINES     CLOUDY    82  75  79 CALM      29.92F HX  89
KIRKSVILLE     CLEAR     78  76  93 N5        29.97R FOG     HX  81
OTTUMWA        PTCLDY    78  76  93 SE5       29.94F HX  81
ST LOUIS       MOCLDY    85  77  77 E3        29.95R HX  95
$$


CITY           SKY/WX    TMP DP  RH WIND       PRES   REMARKS
TERRE HAUTE    CLEAR     75  73  93 CALM      29.99R
EVANSVILLE     MOCLDY    83  77  82 CALM      29.99R HX  92
INDIANAPOLIS   PTCLDY    77  70  79 CALM      30.01R
LAFAYETTE      CLEAR     73  72  96 CALM      30.00R
MADISON        PTCLDY    78  74  87 E10       29.97R HX  81
MILWAUKEE      FOG       70  69  97 NE6       30.00S VSB 1/4
$$




USA.gov is the U.S. government's official web portal to all federal, state and local government web resources and services.